Weather in Tamanrasset

Algeria     22°47′17″N   5°31′46″E
temp.,
°C
wind,
m/s
gust,
m/s
humid.,
%
clouds,
%
prec.,
mm/h
press.,
hPa
HPBL,
m
12 may, wed
wed1201:00+30nne471197 0.0 1014189
04:00+27nne33165 0.0 101314
07:00+28ne512125 0.0 1014307
10:00+33ene54942 0.0 10143689
13:00+35sse43775 0.0 10124995
16:00+36ssw64795 0.0 10095016
19:00+34nnw34899 0.0 10111120
22:00+31wnw571069 0.0 1013143
13 may, thu
thu1301:00+29n58105 0.0 101299
04:00+27ne43110 0.0 101122
07:00+27ne44100 0.0 101256
10:00+33ene2485 0.0 10113248
13:00+35sw34699 0.0 10095174
16:00+36ssw557100 0.0 10075146
19:00+33ssw239100 0.0 1009539
22:00+31nne891196 0.0 1011725
14 may, fri
fri1401:00+30ne341017 0.0 100944
04:00+27nnw44123 0.0 100935
07:00+28ne3390 0.0 101036
10:00+33w15721 0.0 10113864
13:00+36ssw65693 0.0 10095299
16:00+36ssw76698 0.0 10075042
19:00+34wnw548100 0.0 10092552
22:00+31e2210100 0.0 101131
15 may, sat
sat1501:00+30nne3395 0.0 101025
04:00+28nne441193 0.0 101027
07:00+28ene46937 0.0 101285
10:00+34e54617 0.0 10124199
13:00+36sse54629 0.0 10105185
16:00+37s637100 0.0 10095300
19:00+34ene449100 0.0 1010208
22:00+31ene581199 0.0 1012140
16 may, sun
sun1601:00+30ene451239 0.0 101250
04:00+29ne33125 0.0 101013
07:00+29ene512135 0.0 1012300
10:00+34ese88105 0.0 10132220
13:00+36se54834 0.0 10114792
16:00+37sse64897 0.0 10084947
19:00+33nw11101290 0.0 1010644
22:00+31n791498 0.0 1013317